Location: Maunsell
(40.8667°S, 176.0833°E)
Time: 03:08:30
(UTC+00:00)

Daily predictions for brighter satellites

Satellite Brightness Start Highest point End
(mag) Time Altitude Azimuth Time Altitude Azimuth Time Altitude Azimuth
Aureole 1 Rocket 3.9 07:26:37 10° SSW 07:33:23 74° ESE 07:38:40 10° NNE
Cosmos 2074 Rocket 4.1 07:33:07 10° N 07:39:27 90° WSW 07:45:49 10° S
Cosmos 724 4.5 07:33:40 10° NNW 07:39:53 89° ENE 07:46:07 10° SSE
BREEZE-M DEB (TANK) 3.7 07:27:19 10° WNW 07:40:30 85° NNE 07:44:30 10° ESE
Cosmos 2278 Rocket 3.0 07:35:48 10° S 07:41:05 37° ESE 07:46:18 10° NE
CZ-4 R/B 3.0 07:38:30 10° SE 07:41:07 16° E 07:43:43 10° NE
Cosmos 2184 Rocket 4.1 07:36:23 10° N 07:42:34 88° W 07:48:52 10° S
Lacrosse 5 rocket 2.5 07:42:27 10° NNE 07:44:46 17° ENE 07:47:10 10° E
Cosmos 1943 Rocket 3.3 07:39:58 10° S 07:44:47 28° SE 07:49:32 10° ENE
NOSS 3-4 (A) 4.5 07:38:40 10° SSW 07:45:20 38° SE 07:51:04 10° ENE
NOSS 3-4 (C) 4.5 07:38:48 10° SSW 07:45:26 38° SE 07:51:09 10° ENE
SL-16 R/B 4.0 07:45:41 10° ENE 07:47:17 11° E 07:48:52 10° E
COSMOS 2428 3.0 07:42:03 10° NNW 07:47:44 76° WSW 07:53:30 10° SSE
Cosmos 2237 Rocket 2.5 07:43:15 10° N 07:48:37 44° ENE 07:54:01 10° SE
Cosmos 1726 Rocket 4.1 07:44:49 10° S 07:49:07 43° ESE 07:53:22 10° NNE
SeaSat 1 3.0 07:45:52 10° NE 07:50:32 44° ESE 07:55:15 10° SSW
Cosmos 841 Rocket 3.6 07:45:45 10° NNW 07:51:01 85° WSW 07:56:21 10° SSE
Cosmos 1378 3.9 07:50:33 10° SSE 07:52:58 22° ESE 07:54:48 13° ENE
Cosmos 2058 3.2 07:49:54 10° NNE 07:53:42 44° E 07:57:35 10° SSE
NOSS 0 Rocket 3.9 07:48:21 10° NNW 07:54:30 75° ENE 08:00:45 10° SSE
USA 267 3.6 07:48:13 10° NE 07:54:46 67° NW 08:01:23 10° SW
ACS3 Solar Sail 2.3 07:50:34 10° SSE 07:56:30 40° E 08:02:24 10° NNE
Cosmos 1892 Rocket 3.8 07:53:10 10° NNE 07:57:22 50° E 08:01:39 10° SSE
Cosmos 1898 Rocket 3.7 07:53:19 10° SSW 07:58:43 80° WNW 08:04:02 10° NNE
ARGOS Delta rocket 4.2 07:55:20 10° S 07:59:45 61° WSW 08:04:07 10° NNW
Cosmos 1610 Rocket 4.5 07:56:47 10° N 08:02:57 85° E 08:09:17 10° S
Iridium 51 4.4 07:59:31 10° N 08:03:45 89° E 08:07:54 10° S
Meteor PRIRODA 4.3 08:02:48 10° SE 08:05:40 27° E 08:07:38 15° NNE
CZ-4B R/B 4.1 08:02:45 10° SE 08:06:18 24° E 08:08:46 15° NE
Cosmos 1461 3.6 08:09:56 10° N 08:13:39 32° ENE 08:17:25 10° SE
Okean O Rocket 3.5 08:12:26 10° ESE 08:14:26 13° E 08:14:36 13° E
Helios 1B rocket 2.3 08:12:26 10° SSE 08:16:19 86° W 08:20:08 10° NNW
USA 186 2.7 08:16:23 10° SE 08:19:03 26° E 08:19:37 24° ENE
SJ-6B 2.6 08:19:13 10° SSE 08:22:59 84° E 08:26:45 10° N
DELTA 2 DEB (DPAF) 4.3 08:20:37 10° N 08:24:43 67° WNW 08:28:53 10° SSW
Cosmos 1980 3.8 08:21:46 10° NNW 08:27:26 83° WSW 08:33:11 10° SSE
CZ-4C R/B 3.3 08:27:31 26° NE 08:29:09 49° ESE 08:32:41 10° S
YAOGAN 1 4.3 08:26:34 10° S 08:30:33 35° WSW 08:34:29 10° NW
Lacrosse 5 3.5 08:27:49 10° WNW 08:32:32 37° SW 08:37:18 10° SSE
Cosmos 1500 3.0 08:32:28 29° NNE 08:33:47 50° E 08:37:00 10° SSE
SL-8 Rocket 4.0 08:29:12 10° N 08:35:27 72° E 08:41:43 10° SSE
Hubble Space Telescope 2.8 08:34:47 10° NNW 08:36:11 13° N 08:36:11 13° N
Meteor 2-3 Rocket 3.9 08:33:10 15° NNE 08:37:46 53° E 08:43:19 10° SSE
SPOT 1/Viking Rocket 4.0 08:36:40 10° S 08:41:50 65° WSW 08:46:55 10° NNW
Cosmos 1515 3.6 08:40:29 10° SSW 08:43:51 67° W 08:45:33 26° N
Resurs 01 Rocket 1.5 08:42:42 10° SSE 08:47:11 72° ENE 08:50:19 19° N
CARTOSAT-1 3.4 08:43:11 10° SSE 08:47:31 78° ENE 08:50:42 18° N
Cosmos 2058 Rocket 3.1 08:43:35 10° S 08:48:10 84° W 08:50:53 24° N
Cosmos-2242 3.3 08:46:00 10° S 08:50:16 49° E 08:51:35 36° NE
Cosmos 1666 2.1 08:49:40 45° NNE 08:50:32 73° E 08:53:50 10° SSE
SPOT 5 4.1 08:49:58 10° SE 08:52:47 21° E 08:52:47 21° E
Genesis I 3.9 08:52:12 10° SSW 08:55:06 30° SE 08:55:20 29° ESE
Cosmos 1814 Rocket 4.4 08:56:09 10° NNW 09:01:28 65° WSW 09:06:51 10° SSE
CZ-4B R/B 3.1 08:56:28 10° SSE 09:01:49 63° ENE 09:04:35 28° N
Cosmos 1758 Rocket 3.6 09:04:31 41° NNE 09:05:54 65° E 09:10:25 10° SSE
SAR-Lupe-2 3.8 09:03:33 10° S 09:07:09 69° WSW 09:08:43 31° NNW
SL-8 R/B 4.1 09:02:28 10° WSW 09:07:15 59° SSE 09:09:12 33° E
Cosmos 1727 Rocket 4.1 09:05:45 10° S 09:11:54 56° E 09:14:09 37° NE
Meteor 2-13 Rocket 4.5 09:06:52 10° S 09:13:01 80° W 09:16:29 27° N
CZ-4 R/B 2.8 09:11:51 10° S 09:15:40 38° WSW 09:19:27 10° NW
CZ-4B R/B 4.3 09:12:10 10° S 09:17:04 50° WSW 09:22:03 10° NW
BREEZE-M DEB (TANK) 3.3 09:15:20 10° WSW 09:16:35 29° W 09:16:35 29° W
CSL-04 Rocket 3.5 09:13:08 10° SSE 09:18:32 89° ENE 09:21:33 27° NNW
ASTEX 1 4.4 09:14:14 10° S 09:18:54 44° WSW 09:23:21 11° NNW
Lacrosse 5 rocket 2.0 09:18:55 10° WNW 09:22:21 46° SW 09:25:58 10° SE
Cosmos 1125 Rocket 3.8 09:17:16 10° S 09:22:25 53° ESE 09:23:27 45° ENE
Cosmos 1570 Rocket 3.9 09:21:29 38° N 09:23:34 73° ENE 09:28:57 10° SSE
Cosmos 1238 Rocket 2.7 09:19:44 10° S 09:24:15 86° W 09:24:41 71° N
Cosmos 1782 4.2 09:21:25 10° SSW 09:24:54 33° W 09:26:18 25° NW
Cosmos 2278 Rocket 3.6 09:20:02 10° SW 09:25:01 32° WNW 09:28:22 18° NNW
Cosmos 2297 4.5 09:19:50 10° S 09:25:09 38° ESE 09:26:33 33° E
Okean 1-7 Rocket 3.5 09:24:47 59° NNE 09:25:35 78° E 09:30:14 10° S
Cosmos 1933 3.8 09:23:24 10° SSW 09:27:19 53° W 09:28:04 45° NW
SeaSat 1 4.2 09:25:18 16° NNW 09:28:03 24° WNW 09:32:05 10° SW
Cosmos 1943 Rocket 3.1 09:23:24 10° SW 09:28:38 42° WNW 09:31:05 27° NNW
Cosmos 1656 Rocket 4.1 09:24:32 10° SSW 09:30:05 50° ESE 09:31:22 43° ENE
Cosmos 1340 Rocket 4.1 09:26:41 10° SSW 09:30:13 34° W 09:31:15 28° NW
SL-16 R/B 2.1 09:26:41 23° NNW 09:30:26 88° ENE 09:36:13 10° SSE
Cosmos 1602 4.2 09:33:27 48° SSE 09:33:27 48° SSE 09:36:08 10° S
Cosmos 2237 Rocket 4.2 09:27:57 10° WNW 09:32:49 28° SW 09:37:43 10° S
Cosmos 2369 Rocket 3.0 09:30:11 10° S 09:35:32 39° ESE 09:36:41 35° E
NOSS 3-4 (A) 4.2 09:29:57 10° SW 09:36:21 44° WNW 09:38:35 31° NNW
Meteor 1-26 Rocket 4.3 09:30:19 10° S 09:36:26 87° W 09:38:19 47° N
NOSS 3-4 (C) 4.2 09:30:03 10° SW 09:36:27 44° WNW 09:38:40 32° NNW
ACS3 Solar Sail 3.4 09:34:29 10° S 09:40:05 34° WSW 09:45:40 10° NW
MOS 1 Rocket 3.5 09:35:23 10° SSE 09:40:51 90° WSW 09:42:16 51° NNW
Landsat 5 3.5 09:47:26 69° SW 09:47:26 69° SW 09:50:56 10° SSW
Cosmos 2208 Rocket 3.8 09:47:34 63° NNW 09:48:27 88° ENE 09:53:43 10° SSE
CZ-4C R/B 4.2 09:51:31 24° E 09:51:31 24° E 09:56:03 10° ESE
Cosmos 2221 2.9 09:46:34 10° S 09:50:11 54° SE 09:50:11 54° SE
Okean O Rocket 2.1 09:46:41 10° S 09:51:02 57° WSW 09:51:55 47° WNW
RESURS DK-1 4.4 09:50:40 10° S 09:53:14 18° SE 09:53:14 18° SE
SL-24 R/B - RUBIN 2 4.2 09:49:53 10° SW 09:54:51 60° WNW 09:55:25 56° NNW
Cosmos 1934 Rocket 3.8 10:03:05 66° NE 10:03:47 74° E 10:09:59 10° S
Okean-O 2.8 09:59:57 10° S 10:04:20 68° WSW 10:04:20 68° WSW
MOS 1 4.4 10:04:04 10° S 10:09:48 72° WSW 10:11:11 51° NW
Ariane Rocket 3.9 10:11:15 10° SSE 10:14:51 37° ESE 10:14:51 37° ESE
CZ-2C R/B 4.0 10:16:42 64° WSW 10:16:42 64° WSW 10:21:07 10° SSW
Cosmos 2150 Rocket 4.0 10:12:05 10° SSW 10:17:12 78° SSE 10:17:12 78° SSE
Terra 2.1 10:16:12 10° SSE 10:20:15 63° SSE 10:20:15 63° SSE
ATLAS 2AS CENTAUR R/B 4.3 10:15:23 10° SSW 10:21:36 28° SE 10:25:42 18° E
Meteor 2-6 Rocket 4.3 10:21:46 10° SSW 10:27:13 61° W 10:27:22 61° WNW
SPOT 5 4.0 10:27:30 10° S 10:31:26 32° WSW 10:31:54 31° W
IRS-1C Rocket 4.1 10:26:19 10° SSE 10:31:22 79° SSW 10:31:22 79° SSW
Cosmos 1943 3.2 10:32:45 80° SSE 10:32:45 80° SSE 10:38:05 10° SSE
ERS-1 Rocket 3.3 10:29:13 10° S 10:34:12 61° WSW 10:34:12 61° WSW
Meteor 1-10 Rocket 4.2 10:29:16 10° S 10:34:43 79° SSE 10:34:43 79° SSE
SPOT 3 Rocket 4.0 10:30:38 10° SSE 10:34:42 52° SE 10:34:42 52° SE
Cosmos 2123 Rocket 4.1 10:30:52 10° SSW 10:37:08 65° W 10:37:45 62° NW
Meteor 1-27 Rocket 4.1 10:34:12 10° S 10:39:11 55° SE 10:39:11 55° SE
Gbstr 26 Del rocket 3.9 10:35:54 10° SW 10:40:29 53° S 10:40:29 53° S
Cosmos 2263 4.3 10:43:12 10° SSW 10:48:33 71° WSW 10:48:33 71° WSW
Meteor 1-25 Rocket 4.4 10:54:15 69° SSE 10:54:15 69° SSE 10:59:17 10° S
BREEZE-M DEB (TANK) 4.2 10:56:57 60° NNW 10:58:29 77° NE 11:24:04 10° ESE
Cosmos 1605 Rocket 4.1 11:00:43 68° WNW 11:01:04 69° W 11:07:33 10° S
Cosmos 2369 Rocket 3.6 11:14:27 10° SW 11:18:27 29° W 11:18:27 29° W
Cosmos 1603 4.4 11:33:10 50° WSW 11:33:10 50° WSW 11:38:42 10° SSE
CZ-4C R/B 3.0 11:36:29 64° NW 11:37:58 80° SW 11:45:26 10° SSE
Cosmos 2173 Rocket 4.1 11:42:35 76° SSE 11:42:35 76° SSE 11:48:30 10° S
Cosmos 2016 Rocket 4.5 11:43:47 50° ESE 11:43:47 50° ESE 11:48:56 10° SSE
H-2A R/B 3.8 11:54:28 31° S 11:54:28 31° S 11:56:54 10° S
IDEFIX/ARIANE 42P 4.5 11:52:30 20° ESE 11:52:56 20° ESE 11:56:42 10° SSE
